TimeAKDT,TemperatureF,Dew PointF,Humidity,Sea Level PressureIn,VisibilityMPH,Wind Direction,Wind SpeedMPH,Gust SpeedMPH,PrecipitationIn,Events,Conditions,WindDirDegrees,DateUTC
12:24 AM,42.8,39.2,87,29.82,10.0,SSW,29.9,57.5,N/A,,Mostly Cloudy,200,2013-06-28 08:24:00
12:55 AM,41.9,39.7,92,29.83,10.0,SSW,25.3,36.8,N/A,,Mostly Cloudy,210,2013-06-28 08:55:00
1:04 AM,41.0,39.2,93,29.83,8.0,SW,26.5,44.9,N/A,,Overcast,220,2013-06-28 09:04:00
1:24 AM,41.0,39.2,93,29.83,4.0,South,34.5,49.5,N/A,Rain,Light Rain,190,2013-06-28 09:24:00
1:44 AM,41.0,39.2,93,29.83,6.0,SSW,29.9,46.0,N/A,Rain,Light Rain,200,2013-06-28 09:44:00
1:55 AM,40.6,39.6,96,29.83,7.0,SSW,31.1,46.0,N/A,Rain,Light Rain Showers,200,2013-06-28 09:55:00
2:04 AM,41.0,39.2,93,29.83,8.0,SSW,33.4,49.5,N/A,Rain,Light Rain Showers,200,2013-06-28 10:04:00
2:24 AM,41.0,39.2,93,29.85,6.0,SSW,28.8,43.7,N/A,Rain,Light Rain Showers,200,2013-06-28 10:24:00
2:44 AM,41.0,39.2,93,29.85,10.0,South,15.0,35.7,N/A,,Overcast,190,2013-06-28 10:44:00
2:55 AM,40.8,39.0,93,29.86,10.0,SSW,23.0,35.7,N/A,,Overcast,210,2013-06-28 10:55:00
3:04 AM,41.0,39.2,93,29.86,10.0,SSW,17.3,31.1,N/A,,Overcast,200,2013-06-28 11:04:00
3:44 AM,41.0,39.2,93,29.85,10.0,South,26.5,35.7,N/A,,Overcast,190,2013-06-28 11:44:00
3:55 AM,40.5,38.8,94,29.85,10.0,South,28.8,35.7,N/A,,Overcast,190,2013-06-28 11:55:00
4:55 AM,41.2,38.5,90,29.85,10.0,South,27.6,35.7,N/A,,Overcast,190,2013-06-28 12:55:00
5:44 AM,42.8,39.2,87,29.85,10.0,South,28.8,36.8,N/A,,Mostly Cloudy,190,2013-06-28 13:44:00
5:55 AM,41.9,38.8,89,29.85,10.0,SSW,20.7,31.1,N/A,,Overcast,200,2013-06-28 13:55:00
6:24 AM,42.8,39.2,87,29.84,10.0,SSW,19.6,39.1,N/A,,Overcast,200,2013-06-28 14:24:00
6:55 AM,41.9,39.2,90,29.84,10.0,SSW,29.9,42.6,N/A,,Mostly Cloudy,200,2013-06-28 14:55:00
7:55 AM,41.7,39.2,91,29.86,10.0,SW,19.6,36.8,N/A,,Overcast,220,2013-06-28 15:55:00
8:55 AM,42.1,39.6,91,29.86,10.0,South,21.9,31.1,N/A,,Light Drizzle,190,2013-06-28 16:55:00
9:24 AM,42.8,39.2,87,29.86,10.0,South,17.3,31.1,N/A,,Overcast,180,2013-06-28 17:24:00
9:55 AM,42.8,39.2,87,29.87,10.0,South,18.4,31.1,N/A,,Overcast,190,2013-06-28 17:55:00
10:44 AM,41.0,39.2,93,29.88,10.0,SSW,21.9,35.7,N/A,,Overcast,200,2013-06-28 18:44:00
10:55 AM,41.4,39.9,95,29.88,10.0,SSW,20.7,36.8,N/A,,Overcast,210,2013-06-28 18:55:00
11:55 AM,41.4,39.2,92,29.88,10.0,South,26.5,38.0,N/A,,Overcast,190,2013-06-28 19:55:00
12:24 PM,42.8,39.2,87,29.88,10.0,SSW,27.6,35.7,N/A,,Mostly Cloudy,200,2013-06-28 20:24:00
12:44 PM,42.8,39.2,87,29.89,10.0,South,26.5,40.3,N/A,,Mostly Cloudy,190,2013-06-28 20:44:00
12:55 PM,41.9,38.3,87,29.90,10.0,SSW,27.6,41.4,N/A,,Overcast,200,2013-06-28 20:55:00
1:24 PM,41.0,39.2,93,29.90,10.0,SSW,31.1,39.1,N/A,,Overcast,200,2013-06-28 21:24:00
1:55 PM,41.7,38.3,88,29.91,10.0,SSW,32.2,41.4,N/A,,Overcast,200,2013-06-28 21:55:00
2:04 PM,41.0,39.2,93,29.91,10.0,SSW,23.0,42.6,N/A,,Overcast,200,2013-06-28 22:04:00
2:24 PM,41.0,39.2,93,29.91,10.0,SSW,26.5,39.1,N/A,,Overcast,200,2013-06-28 22:24:00
2:55 PM,41.5,38.5,89,29.92,10.0,SSW,19.6,35.7,N/A,,Overcast,210,2013-06-28 22:55:00
3:55 PM,41.5,38.3,88,29.93,10.0,SSW,16.1,41.4,N/A,,Overcast,210,2013-06-28 23:55:00
4:55 PM,41.5,38.5,89,29.93,10.0,South,25.3,35.7,N/A,,Mostly Cloudy,190,2013-06-29 00:55:00
5:04 PM,41.0,39.2,93,29.94,10.0,South,26.5,35.7,N/A,,Overcast,190,2013-06-29 01:04:00
5:44 PM,41.0,39.2,93,29.94,10.0,SSW,25.3,35.7,N/A,,Overcast,200,2013-06-29 01:44:00
5:55 PM,41.9,38.3,87,29.94,10.0,SSW,23.0,33.4,N/A,,Overcast,200,2013-06-29 01:55:00
6:24 PM,42.8,39.2,87,29.94,10.0,SW,19.6,32.2,N/A,,Overcast,220,2013-06-29 02:24:00
6:55 PM,41.4,38.3,89,29.94,10.0,SW,18.4,29.9,N/A,,Overcast,220,2013-06-29 02:55:00
7:44 PM,41.0,39.2,93,29.95,10.0,SW,18.4,26.5,N/A,,Mostly Cloudy,220,2013-06-29 03:44:00
7:55 PM,41.2,38.5,90,29.95,10.0,SW,23.0,35.7,N/A,,Overcast,230,2013-06-29 03:55:00
8:55 PM,41.0,38.5,91,29.96,10.0,SSW,18.4,32.2,N/A,,Mostly Cloudy,210,2013-06-29 04:55:00
9:55 PM,41.5,38.7,89,29.95,10.0,SSW,20.7,34.5,N/A,,Mostly Cloudy,200,2013-06-29 05:55:00
10:44 PM,42.8,39.2,87,29.96,10.0,SW,16.1,24.2,N/A,,Mostly Cloudy,220,2013-06-29 06:44:00
10:55 PM,42.3,38.5,86,29.96,10.0,SSW,19.6,26.5,N/A,,Mostly Cloudy,210,2013-06-29 06:55:00
11:04 PM,42.8,39.2,87,29.96,10.0,SW,16.1,26.5,N/A,,Mostly Cloudy,220,2013-06-29 07:04:00
11:44 PM,42.8,39.2,87,29.96,10.0,SSW,21.9,-,N/A,,Scattered Clouds,200,2013-06-29 07:44:00
11:55 PM,42.8,38.5,85,29.95,10.0,SSW,24.2,31.1,N/A,,Partly Cloudy,200,2013-06-29 07:55:00